Weather History for Phoenix, AZ

Change the Weather History Date:

Friday, February 22, 2013

  Actual Average Record
Temperature  
Mean Temperature 53 °F 61 °F  
Max Temperature 63 °F 72 °F 87 °F (1982)
Min Temperature 42 °F 50 °F 26 °F (1955)
Degree Days  
Heating Degree Days 12 5  
Month to date heating degree days 155 135  
Since 1 July heating degree days 787 805  
Cooling Degree Days 0 1  
Month to date cooling degree days 3 5  
Year to date cooling degree days 8 7  
Growing Degree Days 2 (Base 50)    
Moisture  
Dew Point 31 °F    
Average Humidity 52    
Maximum Humidity 82    
Minimum Humidity 22    
Precipitation  
Precipitation 0.00 in 0.04 in 0.45 in (1913)
Month to date precipitation 0.31 0.70  
Year to date precipitation 1.70 1.61  
Snow  
Snow 0.00 in - - ()
Month to date snowfall 0.0  
Year to date snowfall 0.0  
Since 1 July snowfall 0.0  
Snow Depth 0.00 in    
Sea Level Pressure  
Sea Level Pressure 30.07 in    
Wind  
Wind Speed 5 mph (WSW)    
Max Wind Speed 14 mph    
Max Gust Speed 21 mph    
Visibility 10 miles    
Events      
T = Trace of Precipitation, MM = Missing Value Source: NWS Daily Summary

Daily Weather History Graph

Daily Weather History Graph

Search for Another Location

Airport:

Trip Planner

Search our weather history database for the weather conditions in past years. The results will help you decide how hot, cold, wet, or windy it might be!

Date:

Astronomy

Feb. 22, 2013 Rise Set
Actual Time 7:04 AM MST 6:19 PM MST
Civil Twilight 6:39 AM MST 6:44 PM MST
Nautical Twilight 6:10 AM MST 7:13 PM MST
Astronomical Twilight 5:41 AM MST 7:42 PM MST
Moon 3:39 PM MST (2/22) 4:45 AM MST (2/22)
Length of Visible Light 12h 05m
Length of Day
11h 15m
Waxing Gibbous, 90% of the Moon is Illuminated
Feb 22
Waxing Gibbous
Feb 25
Full
Mar 4
Last Quarter
Mar 11
New
Mar 19
First Quarter

Hourly Weather History & Observations

Time (MST) Temp. Windchill Dew Point Humidity Pressure Visibility Wind Dir Wind Speed Gust Speed Precip Events Conditions
12:51 AM 48.0 °F - 37.0 °F 66% 30.00 in 10.0 mi West 3.5 mph - N/A   Partly Cloudy
1:51 AM 46.0 °F 43.9 °F 37.9 °F 73% 30.01 in 10.0 mi WSW 4.6 mph - N/A   Scattered Clouds
2:51 AM 46.0 °F 43.9 °F 36.0 °F 68% 30.01 in 10.0 mi West 4.6 mph - N/A   Partly Cloudy
3:51 AM 46.0 °F 43.9 °F 37.0 °F 71% 30.01 in 10.0 mi WNW 4.6 mph - N/A   Partly Cloudy
4:51 AM 45.0 °F 41.8 °F 37.9 °F 76% 30.03 in 10.0 mi West 5.8 mph - N/A   Partly Cloudy
5:51 AM 42.8 °F 39.3 °F 37.4 °F 81% 30.05 in 10.0 mi SW 5.8 mph - N/A   Partly Cloudy
6:51 AM 42.1 °F 40.2 °F 37.0 °F 82% 30.06 in 10.0 mi WSW 3.5 mph - N/A   Partly Cloudy
7:51 AM 44.1 °F 41.5 °F 36.0 °F 73% 30.09 in 10.0 mi West 4.6 mph - N/A   Partly Cloudy
8:51 AM 46.4 °F 44.3 °F 35.6 °F 66% 30.13 in 10.0 mi WSW 4.6 mph - N/A   Partly Cloudy
9:51 AM 48.9 °F - 34.0 °F 56% 30.12 in 10.0 mi WSW 4.6 mph - N/A   Partly Cloudy
10:51 AM 52.0 °F - 34.0 °F 50% 30.12 in 10.0 mi Calm Calm - N/A   Partly Cloudy
11:51 AM 55.0 °F - 30.9 °F 40% 30.12 in 10.0 mi West 3.5 mph - N/A   Partly Cloudy
12:51 PM 57.9 °F - 28.9 °F 33% 30.10 in 10.0 mi South 3.5 mph - N/A   Partly Cloudy
1:51 PM 57.9 °F - 24.1 °F 27% 30.08 in 10.0 mi West 8.1 mph - N/A   Partly Cloudy
2:51 PM 60.1 °F - 23.0 °F 24% 30.07 in 10.0 mi NW 6.9 mph - N/A   Scattered Clouds
3:51 PM 62.1 °F - 26.1 °F 25% 30.04 in 10.0 mi SW 9.2 mph 20.7 mph N/A   Scattered Clouds
4:51 PM 61.0 °F - 21.9 °F 22% 30.04 in 10.0 mi Variable 4.6 mph - N/A   Scattered Clouds
5:51 PM 60.1 °F - 21.9 °F 23% 30.05 in 10.0 mi SW 6.9 mph - N/A   Scattered Clouds
6:51 PM 57.9 °F - 25.0 °F 28% 30.08 in 10.0 mi SW 5.8 mph - N/A   Scattered Clouds
7:51 PM 55.9 °F - 26.1 °F 32% 30.09 in 10.0 mi South 4.6 mph - N/A   Partly Cloudy
8:51 PM 55.0 °F - 33.1 °F 43% 30.10 in 10.0 mi Calm Calm - N/A   Partly Cloudy
9:51 PM 54.0 °F - 27.0 °F 35% 30.10 in 10.0 mi SW 3.5 mph - N/A   Partly Cloudy
10:51 PM 53.1 °F - 27.0 °F 37% 30.11 in 10.0 mi SE 3.5 mph - N/A   Clear
11:51 PM 51.1 °F - 28.9 °F 43% 30.11 in 10.0 mi East 4.6 mph - N/A   Clear